EA8CHC Sevilla ES current weather conditions

sailwx.info

Wind from 309

Air temperature 6.1° C
Dewpoint -1.5° C

Last reported at 2018-Feb-23 02:07 UTC.
Time now 2018-Feb-23 03:03 UTC

Location: N 37°26' W 006°03'.
View on Google Maps.

See reports from other nearby stations

  
Tides and Currents Weather Stations Pressure Air Temp Water Temp Dewpoint Dewpoint Depression Visibility Wind Speed Wind Dir Waves Ship Positions
date/time (UTC)wind fromknots sea level pressurealtimeterstation pressurevisibilityair tempwater tempwave heightnotes
2018-Feb-23 02:07 309 6.1
2018-Feb-23 02:02 309 0 gusting 2 6.1
2018-Feb-23 01:57 309 0 gusting 2 6.1
2018-Feb-23 01:52 309 0 gusting 2 6.1
2018-Feb-23 01:47 309 0 gusting 2 6.1
2018-Feb-23 01:42 309 6.1
2018-Feb-23 01:37 309 6.1
2018-Feb-23 01:32 309 0 gusting 2 6.1
2018-Feb-23 01:27 309 0 gusting 2 6.1
2018-Feb-23 01:22 309 0 gusting 3 6.1
2018-Feb-23 01:17 309 1 gusting 3 6.1
2018-Feb-23 01:12 309 1 gusting 3 6.1
2018-Feb-23 01:07 309 1 gusting 3 6.1
2018-Feb-23 01:02 309 1 gusting 3 6.1
2018-Feb-23 00:57 309 1 gusting 3 6.1
2018-Feb-23 00:52 309 1 gusting 3 6.1
2018-Feb-23 00:47 309 1 gusting 4 6.1
2018-Feb-23 00:42 314 2 gusting 5 6.1
2018-Feb-23 00:37 314 2 gusting 5 6.1
2018-Feb-23 00:32 306 3 gusting 5 6.1
2018-Feb-23 00:27 307 3 gusting 4 6.7
2018-Feb-23 00:22 300 3 gusting 4 6.7
2018-Feb-23 00:17 314 2 gusting 3 6.7
2018-Feb-23 00:12 277 2 gusting 3 6.7
2018-Feb-23 00:07 277 1 gusting 3 7.2
2018-Feb-23 00:02 277 0 gusting 2 7.2
2018-Feb-22 23:57 277 7.8
2018-Feb-22 23:52 277 7.8
2018-Feb-22 23:47 277 7.8
2018-Feb-22 23:42 277 7.8
2018-Feb-22 23:37 277 7.8
2018-Feb-22 23:32 277 7.8
2018-Feb-22 23:27 277 7.8
2018-Feb-22 23:22 277 7.8
2018-Feb-22 23:17 277 7.8
2018-Feb-22 23:12 277 0 gusting 2 7.8
2018-Feb-22 23:07 277 0 gusting 2 7.8
2018-Feb-22 23:02 277 0 gusting 1 7.8
2018-Feb-22 22:57 277 0 gusting 2 7.8
2018-Feb-22 22:52 277 0 gusting 2 7.8
2018-Feb-22 22:47 277 0 gusting 2 8.3
2018-Feb-22 22:42 277 8.3
2018-Feb-22 22:37 277 0 gusting 3 8.3
2018-Feb-22 22:32 277 1 gusting 4 8.9
2018-Feb-22 22:27 277 2 gusting 5 8.9
2018-Feb-22 22:22 277 2 gusting 5 8.9
2018-Feb-22 22:17 277 2 gusting 5 8.9
2018-Feb-22 22:12 277 1 gusting 4 9.4
2018-Feb-22 22:07 286 2 gusting 4 9.4
2018-Feb-22 22:02 287 1 gusting 4 9.4
2018-Feb-22 21:57 294 1 gusting 3 10.0
2018-Feb-22 21:52 294 2 gusting 3 10.0
2018-Feb-22 21:47 291 0 gusting 2 10.6
2018-Feb-22 21:42 253 0 gusting 2 10.6
2018-Feb-22 21:37 253 0 gusting 2 11.1
2018-Feb-22 21:32 254 11.1
2018-Feb-22 21:27 254 11.7
2018-Feb-22 21:22 254 11.7
2018-Feb-22 21:17 253 1 gusting 6 11.7
2018-Feb-22 21:12 254 2 gusting 6 11.7
2018-Feb-22 21:07 232 1 gusting 4 11.7
2018-Feb-22 21:02 175 0 gusting 4 11.7
2018-Feb-22 20:57 121 11.7
2018-Feb-22 20:52 076 0 gusting 3 11.7
2018-Feb-22 20:47 076 0 gusting 3 11.7
2018-Feb-22 20:42 126 11.7
2018-Feb-22 20:37 126 1 gusting 6 11.7
2018-Feb-22 20:32 126 2 gusting 6 12.2
2018-Feb-22 20:27 123 2 gusting 6 12.2
2018-Feb-22 20:22 206 1 gusting 4 12.2
2018-Feb-22 20:17 229 0 gusting 4 12.2
2018-Feb-22 20:12 234 0 gusting 4 12.2
2018-Feb-22 20:07 234 1 gusting 6 12.8
2018-Feb-22 20:02 239 2 gusting 6 12.8
2018-Feb-22 19:57 204 2 gusting 6 12.8
2018-Feb-22 19:52 250 3 gusting 6 12.8
2018-Feb-22 19:47 221 4 gusting 6 12.8
2018-Feb-22 19:42 225 3 gusting 6 12.8
2018-Feb-22 19:37 248 3 gusting 6 13.3
2018-Feb-22 19:32 224 3 gusting 6 13.3
2018-Feb-22 19:27 217 3 gusting 6 13.3
2018-Feb-22 19:22 201 2 gusting 6 13.3
2018-Feb-22 19:17 194 2 gusting 7 13.3
2018-Feb-22 19:12 208 3 gusting 7 13.9
2018-Feb-22 19:07 220 3 gusting 9 13.9
2018-Feb-22 19:02 199 3 gusting 9 13.9
2018-Feb-22 18:57 208 4 gusting 9 13.9
2018-Feb-22 18:52 190 4 gusting 9 14.4
2018-Feb-22 18:47 189 3 gusting 9 14.4
2018-Feb-22 18:42 222 4 gusting 8 14.4
2018-Feb-22 18:37 217 4 gusting 8 15.0
2018-Feb-22 18:32 171 5 gusting 8 15.0
2018-Feb-22 18:27 190 4 gusting 8 15.0
2018-Feb-22 18:22 192 2 gusting 6 15.0
2018-Feb-22 18:17 173 1 gusting 6 15.0
2018-Feb-22 18:12 175 2 gusting 6 15.6
2018-Feb-22 18:07 175 3 gusting 6 15.6
2018-Feb-22 18:02 151 3 gusting 8 15.6
2018-Feb-22 17:57 138 4 gusting 8 15.6
2018-Feb-22 17:52 157 5 gusting 8 16.1
2018-Feb-22 17:47 157 3 gusting 7 16.1
2018-Feb-22 17:42 170 3 gusting 6 16.7
2018-Feb-22 17:37 181 3 gusting 6 16.7
2018-Feb-22 17:32 165 3 gusting 7 17.2
2018-Feb-22 17:27 222 4 gusting 7 17.8
2018-Feb-22 17:22 174 3 gusting 7 17.8
2018-Feb-22 17:17 236 3 gusting 6 17.8
2018-Feb-22 17:12 222 3 gusting 6 17.8
2018-Feb-22 17:07 233 2 gusting 6 17.8
2018-Feb-22 17:02 205 2 gusting 6 17.8
2018-Feb-22 16:57 169 2 gusting 6 17.8
2018-Feb-22 16:52 150 2 gusting 6 17.8
2018-Feb-22 16:47 165 2 gusting 4 17.8
2018-Feb-22 16:42 185 0 gusting 4 18.3
2018-Feb-22 16:37 202 0 gusting 4 18.3
2018-Feb-22 16:32 196 1 gusting 4 18.3
2018-Feb-22 16:27 194 1 gusting 4 18.3
2018-Feb-22 16:22 197 0 gusting 6 18.3
2018-Feb-22 16:17 197 1 gusting 6 17.8
2018-Feb-22 16:12 197 0 gusting 6 17.8
2018-Feb-22 16:07 211 0 gusting 5 17.8
2018-Feb-22 16:02 192 1 gusting 5 17.8
2018-Feb-22 15:57 180 1 gusting 4 17.8
2018-Feb-22 15:52 180 1 gusting 4 17.8
2018-Feb-22 15:47 188 0 gusting 4 18.3
2018-Feb-22 15:42 278 18.3
2018-Feb-22 15:37 236 17.8
2018-Feb-22 15:32 236 0 gusting 6 17.8
2018-Feb-22 15:27 236 1 gusting 6 17.2
2018-Feb-22 15:22 205 2 gusting 6 17.2
2018-Feb-22 15:17 217 3 gusting 6 17.2
2018-Feb-22 15:12 249 2 gusting 6 17.2
2018-Feb-22 15:07 265 2 gusting 7 16.7
2018-Feb-22 15:02 232 3 gusting 7 16.7
2018-Feb-22 14:57 192 2 gusting 7 16.7
2018-Feb-22 14:52 186 1 gusting 8 16.7
2018-Feb-22 14:47 152 2 gusting 8 16.7
2018-Feb-22 14:42 289 3 gusting 8 16.7
2018-Feb-22 14:37 231 2 gusting 6 16.7
2018-Feb-22 14:32 171 0 gusting 3 16.7
2018-Feb-22 14:27 261 0 gusting 4 16.7
2018-Feb-22 14:22 261 0 gusting 4 16.1
2018-Feb-22 14:17 261 0 gusting 4 16.1
2018-Feb-22 14:12 086 0 gusting 6 16.1
2018-Feb-22 14:07 042 1 gusting 6 15.6
2018-Feb-22 14:02 031 2 gusting 6 15.6
2018-Feb-22 13:57 093 1 gusting 5 15.6
2018-Feb-22 13:52 243 0 gusting 6 16.1
2018-Feb-22 13:47 240 1 gusting 6 15.6
2018-Feb-22 13:42 232 1 gusting 6 15.6
2018-Feb-22 13:37 128 0 gusting 4 15.0
2018-Feb-22 13:32 090 0 gusting 4 15.0
2018-Feb-22 13:27 070 1 gusting 6 14.4
2018-Feb-22 13:22 081 2 gusting 6 14.4
2018-Feb-22 13:17 111 1 gusting 6 14.4
2018-Feb-22 13:12 137 1 gusting 5 14.4
2018-Feb-22 13:07 319 1 gusting 5 14.4
2018-Feb-22 13:02 269 2 gusting 5 14.4
2018-Feb-22 12:57 144 1 gusting 5 14.4
2018-Feb-22 12:52 165 1 gusting 4 13.9
2018-Feb-22 12:47 046 1 gusting 5 13.9
2018-Feb-22 12:42 088 2 gusting 6 13.9
2018-Feb-22 12:37 088 3 gusting 6 13.9
2018-Feb-22 12:32 058 1 gusting 6 13.9
2018-Feb-22 12:27 063 0 gusting 7 13.9
2018-Feb-22 12:22 046 1 gusting 7 13.3
2018-Feb-22 12:17 031 3 gusting 6 13.3
2018-Feb-22 12:12 050 2 gusting 6 13.3
2018-Feb-22 12:07 072 1 gusting 5 13.3
2018-Feb-22 12:02 245 1 gusting 6 12.8
2018-Feb-22 11:57 103 2 gusting 9 12.8
2018-Feb-22 11:52 086 3 gusting 9 12.8
2018-Feb-22 11:47 103 3 gusting 9 12.8
2018-Feb-22 11:42 069 1 gusting 6 12.8
2018-Feb-22 11:37 108 1 gusting 6 12.8
2018-Feb-22 11:32 013 3 gusting 7 12.8
2018-Feb-22 11:27 044 3 gusting 7 12.2
2018-Feb-22 11:22 338 3 gusting 9 12.2
2018-Feb-22 11:17 022 4 gusting 9 12.2
2018-Feb-22 11:12 010 2 gusting 9 12.2
2018-Feb-22 11:07 026 2 gusting 9 11.7
2018-Feb-22 11:02 066 3 gusting 9 11.7
2018-Feb-22 10:57 061 4 gusting 9 11.7
2018-Feb-22 10:52 045 4 gusting 9 11.7
2018-Feb-22 10:47 098 2 gusting 5 11.7
2018-Feb-22 10:42 078 2 gusting 5 11.7
2018-Feb-22 10:37 062 2 gusting 5 11.7
2018-Feb-22 10:32 107 1 gusting 5 11.1
2018-Feb-22 10:27 075 2 gusting 5 11.1
2018-Feb-22 10:22 087 3 gusting 6 11.1
2018-Feb-22 10:17 062 3 gusting 6 10.6
2018-Feb-22 10:12 101 3 gusting 6 10.6
2018-Feb-22 10:07 057 3 gusting 6 10.6
2018-Feb-22 10:02 057 3 gusting 6 10.6
2018-Feb-22 09:57 027 2 gusting 6 10.6
2018-Feb-22 09:52 055 2 gusting 5 10.6
2018-Feb-22 09:47 067 2 gusting 5 10.6
2018-Feb-22 09:42 034 2 gusting 5 10.0
2018-Feb-22 09:37 048 1 gusting 6 10.0
2018-Feb-22 09:32 051 1 gusting 6 10.0
2018-Feb-22 09:27 051 1 gusting 6 9.4
2018-Feb-22 09:22 023 1 gusting 4 9.4
2018-Feb-22 09:17 328 1 gusting 4 8.9
2018-Feb-22 09:12 329 1 gusting 4 8.3
2018-Feb-22 09:07 329 1 gusting 4 8.3
2018-Feb-22 09:02 302 1 gusting 4 7.8
2018-Feb-22 08:57 313 0 gusting 4 7.8
2018-Feb-22 08:52 304 0 gusting 4 7.8
2018-Feb-22 08:47 317 0 gusting 3 7.2
2018-Feb-22 08:42 325 7.2
2018-Feb-22 08:37 293 0 gusting 4 6.7
2018-Feb-22 08:32 293 1 gusting 4 6.1
2018-Feb-22 08:27 293 2 gusting 4 5.6
2018-Feb-22 08:22 293 2 gusting 6 5.6
2018-Feb-22 08:17 286 3 gusting 6 5.0
2018-Feb-22 08:12 290 3 gusting 6 5.0
2018-Feb-22 08:07 288 4 gusting 6 5.0
2018-Feb-22 08:02 299 4 gusting 6 5.0
2018-Feb-22 07:57 280 2 gusting 4 5.0
2018-Feb-22 07:52 288 1 gusting 4 5.0
2018-Feb-22 07:47 308 1 gusting 4 5.0
2018-Feb-22 07:42 294 1 gusting 3 5.0
2018-Feb-22 07:37 330 1 gusting 4 5.0
2018-Feb-22 07:27 330 1 gusting 4 4.4
2018-Feb-22 07:22 325 1 gusting 3 4.4
2018-Feb-22 07:17 300 1 gusting 3 4.4
2018-Feb-22 07:12 301 0 gusting 2 4.4
2018-Feb-22 07:07 311 4.4
2018-Feb-22 07:02 311 0 gusting 2 4.4
2018-Feb-22 06:57 311 0 gusting 3 4.4
2018-Feb-22 06:52 313 1 gusting 3 5.0
2018-Feb-22 06:47 313 1 gusting 3 5.0
2018-Feb-22 06:42 298 5.0
2018-Feb-22 06:37 298 5.6
2018-Feb-22 06:32 298 0 gusting 2 5.6
2018-Feb-22 06:27 298 0 gusting 2 5.6
2018-Feb-22 06:22 298 0 gusting 2 5.6
2018-Feb-22 06:17 298 0 gusting 2 5.6
2018-Feb-22 06:12 298 5.6
2018-Feb-22 06:07 298 5.6
2018-Feb-22 06:02 298 1 gusting 4 5.6
2018-Feb-22 05:57 298 1 gusting 4 5.6
2018-Feb-22 05:52 311 0 gusting 2 5.6
2018-Feb-22 05:47 312 0 gusting 3 5.6
2018-Feb-22 05:42 312 0 gusting 3 5.6
2018-Feb-22 05:37 312 0 gusting 3 5.6
2018-Feb-22 05:32 312 0 gusting 2 6.1
2018-Feb-22 05:27 316 6.1
2018-Feb-22 05:22 316 0 gusting 3 6.1
2018-Feb-22 05:17 316 1 gusting 3 6.7
2018-Feb-22 05:12 316 0 gusting 2 6.7
2018-Feb-22 05:07 316 6.7
2018-Feb-22 05:02 304 0 gusting 4 6.7
2018-Feb-22 04:57 304 1 gusting 4 6.7
2018-Feb-22 04:52 304 1 gusting 3 6.7
2018-Feb-22 04:47 288 2 gusting 3 6.7
2018-Feb-22 04:42 288 2 gusting 3 6.7
2018-Feb-22 04:37 288 2 gusting 3 6.7
2018-Feb-22 04:32 288 1 gusting 3 6.7
2018-Feb-22 04:27 288 1 gusting 3 6.7
2018-Feb-22 04:22 288 1 gusting 3 6.7
2018-Feb-22 04:17 288 1 gusting 2 7.2
2018-Feb-22 04:12 288 1 gusting 2 7.2
2018-Feb-22 04:07 288 1 gusting 3 7.2
2018-Feb-22 04:02 288 1 gusting 3 7.2
2018-Feb-22 03:57 288 1 gusting 3 7.2
2018-Feb-22 03:52 288 0 gusting 2 7.2
2018-Feb-22 03:47 288 7.2
2018-Feb-22 03:42 288 0 gusting 3 7.2
2018-Feb-22 03:37 288 0 gusting 4 7.2
2018-Feb-22 03:32 288 2 gusting 4 7.2
2018-Feb-22 03:27 288 3 gusting 4 7.2
2018-Feb-22 03:22 288 2 gusting 4 6.7
2018-Feb-22 03:17 288 3 gusting 4 6.7
2018-Feb-22 03:12 288 3 gusting 4 6.7
2018-Feb-22 03:07 288 3 gusting 4 6.7
2018-Feb-22 03:02 296 2 gusting 4 6.7
2018-Feb-22 02:57 314 1 gusting 4 7.2
2018-Feb-22 02:52 317 1 gusting 4 7.2
2018-Feb-22 02:47 311 2 gusting 5 7.2
2018-Feb-22 02:42 302 2 gusting 5 7.2
2018-Feb-22 02:37 285 2 gusting 4 7.2
2018-Feb-22 02:32 298 2 gusting 4 7.2
2018-Feb-22 02:27 298 2 gusting 3 7.8
2018-Feb-22 02:22 299 1 gusting 2 8.3
2018-Feb-22 02:17 299 0 gusting 1 8.3
2018-Feb-22 02:12 299 8.3
2018-Feb-22 02:07 299 0 gusting 1 8.3
2018-Feb-22 02:02 299 0 gusting 1 8.3
2018-Feb-22 01:57 299 8.3
2018-Feb-22 01:52 299 8.9
2018-Feb-22 01:47 299 8.9
2018-Feb-22 01:42 299 8.9
2018-Feb-22 01:37 299 8.9
2018-Feb-22 01:32 299 8.9
2018-Feb-22 01:27 299 8.9
2018-Feb-22 01:22 299 8.9
2018-Feb-22 01:17 299 8.9
2018-Feb-22 01:12 299 8.3
2018-Feb-22 01:07 299 8.3
2018-Feb-22 01:02 299 8.3
2018-Feb-22 00:57 299 8.3
2018-Feb-22 00:52 299 8.9
2018-Feb-22 00:47 299 8.9
2018-Feb-22 00:42 299 8.9
2018-Feb-22 00:37 299 9.4
2018-Feb-22 00:32 299 10.0
2018-Feb-22 00:27 299 10.0
2018-Feb-22 00:22 299 10.0
2018-Feb-22 00:17 299 10.0
2018-Feb-22 00:12 299 0 gusting 3 10.0
2018-Feb-22 00:07 299 1 gusting 4 10.0
2018-Feb-22 00:02 299 2 gusting 4 10.0
2018-Feb-21 23:57 299 3 gusting 4 10.0
2018-Feb-21 23:52 304 2 gusting 3 9.4
2018-Feb-21 23:47 304 1 gusting 3 9.4
2018-Feb-21 23:42 304 1 gusting 3 9.4
2018-Feb-21 23:37 304 2 gusting 4 9.4
2018-Feb-21 23:32 313 2 gusting 4 9.4
2018-Feb-21 23:27 313 2 gusting 4 9.4
2018-Feb-21 23:22 322 2 gusting 4 9.4
2018-Feb-21 23:17 329 2 gusting 4 9.4
2018-Feb-21 23:12 005 1 gusting 3 10.0
2018-Feb-21 23:07 053 1 gusting 3 10.0
2018-Feb-21 23:02 053 1 gusting 3 10.0
2018-Feb-21 22:57 080 0 gusting 2 10.6
2018-Feb-21 22:52 080 0 gusting 1 10.6
2018-Feb-21 22:47 080 11.1
2018-Feb-21 22:42 080 11.1
2018-Feb-21 22:37 080 11.7
2018-Feb-21 22:32 080 11.7
2018-Feb-21 22:27 080 11.7
2018-Feb-21 22:22 080 11.7
2018-Feb-21 22:17 080 12.2
2018-Feb-21 22:12 080 12.2
2018-Feb-21 22:07 080 12.2
2018-Feb-21 22:02 080 12.2
2018-Feb-21 21:57 080 12.2
2018-Feb-21 21:52 080 12.2
2018-Feb-21 21:47 080 12.8
2018-Feb-21 21:42 080 12.8
2018-Feb-21 21:37 080 12.8
2018-Feb-21 21:32 080 12.8
2018-Feb-21 21:27 080 12.8
2018-Feb-21 21:22 080 13.3
2018-Feb-21 21:17 080 13.3
2018-Feb-21 21:12 080 13.3
2018-Feb-21 21:07 080 13.3
2018-Feb-21 21:02 080 0 gusting 2 13.3
2018-Feb-21 20:57 080 0 gusting 3 13.3
2018-Feb-21 20:52 080 1 gusting 3 13.3
2018-Feb-21 20:47 080 1 gusting 3 13.9
2018-Feb-21 20:42 080 1 gusting 3 13.9
2018-Feb-21 20:37 077 0 gusting 3 13.9
2018-Feb-21 20:32 051 13.9
2018-Feb-21 20:27 051 13.9
2018-Feb-21 20:22 051 14.4
2018-Feb-21 20:17 051 0 gusting 2 14.4
2018-Feb-21 20:12 051 0 gusting 3 14.4
2018-Feb-21 20:07 051 1 gusting 3 14.4
2018-Feb-21 20:02 051 1 gusting 3 15.0
2018-Feb-21 19:57 051 0 gusting 1 15.0
2018-Feb-21 19:52 051 0 gusting 2 15.0
2018-Feb-21 19:47 051 0 gusting 4 15.0
2018-Feb-21 19:42 051 1 gusting 4 15.0
2018-Feb-21 19:22 005 0 gusting 2 15.6
2018-Feb-21 19:07 15.6
2018-Feb-21 19:02 15.6
2018-Feb-21 18:52 015 3 gusting 5 16.1
2018-Feb-21 18:47 015 2 gusting 4 16.1
2018-Feb-21 18:37 052 2 gusting 4 16.7
2018-Feb-21 18:22 058 2 gusting 4 17.2
2018-Feb-21 18:12 033 2 gusting 6 17.8
2018-Feb-21 18:07 033 2 gusting 6 17.8
2018-Feb-21 17:57 023 2 gusting 6 18.3
2018-Feb-21 17:52 051 2 gusting 7 18.3
2018-Feb-21 17:47 051 2 gusting 10 18.3
2018-Feb-21 17:42 009 4 gusting 10 18.9
2018-Feb-21 17:37 015 6 gusting 10 18.9
2018-Feb-21 17:32 005 6 gusting 9 18.9
2018-Feb-21 17:27 350 6 gusting 11 18.9
2018-Feb-21 17:22 350 6 gusting 11 18.9
2018-Feb-21 17:17 341 6 gusting 12 18.9
2018-Feb-21 17:12 010 6 gusting 12 18.9
2018-Feb-21 17:07 063 6 gusting 11 18.9
2018-Feb-21 17:02 005 6 gusting 13 19.4
2018-Feb-21 16:57 058 6 gusting 13 19.4
2018-Feb-21 16:52 032 8 gusting 13 19.4
2018-Feb-21 16:47 005 7 gusting 14 19.4
2018-Feb-21 16:42 355 7 gusting 14 19.4
2018-Feb-21 16:37 336 8 gusting 15 19.4
2018-Feb-21 16:32 033 9 gusting 15 19.4
2018-Feb-21 16:27 355 8 gusting 15 20.0
2018-Feb-21 16:22 340 6 gusting 16 20.0
2018-Feb-21 16:17 009 6 gusting 16 20.0
2018-Feb-21 16:12 355 6 gusting 16 20.0
2018-Feb-21 16:07 349 6 gusting 12 20.0
2018-Feb-21 16:02 015 6 gusting 12 20.0
2018-Feb-21 15:57 005 5 gusting 10 20.0
2018-Feb-21 15:52 338 5 gusting 13 20.0
2018-Feb-21 15:47 338 6 gusting 13 20.0
2018-Feb-21 15:42 20.0
2018-Feb-21 15:37 316 5 gusting 13 20.0
2018-Feb-21 15:32 341 5 gusting 13 20.0
2018-Feb-21 15:27 071 5 gusting 13 20.0
2018-Feb-21 15:22 017 5 gusting 13 20.0
2018-Feb-21 15:17 055 6 gusting 13 20.0
2018-Feb-21 14:42 013 6 gusting 14 19.4
2018-Feb-21 14:32 053 2 gusting 7 19.4
2018-Feb-21 14:22 076 4 gusting 8 18.9
2018-Feb-21 14:17 041 4 gusting 8 18.9
2018-Feb-21 14:02 103 2 gusting 10 18.3
2018-Feb-21 13:57 123 1 gusting 10 18.3
2018-Feb-21 13:47 073 3 gusting 9 17.8
2018-Feb-21 13:42 071 3 gusting 6 17.8
2018-Feb-21 13:37 028 2 gusting 6 17.8
2018-Feb-21 13:32 126 2 gusting 6 17.8
2018-Feb-21 13:27 051 1 gusting 6 17.8
2018-Feb-21 13:17 331 2 gusting 7 17.8
2018-Feb-21 13:07 069 3 gusting 9 17.2
2018-Feb-21 13:02 161 3 gusting 9 17.2
2018-Feb-21 12:57 350 3 gusting 9 17.2
2018-Feb-21 12:52 355 1 gusting 9 17.2
2018-Feb-21 12:37 069 3 gusting 8 16.7
2018-Feb-21 12:32 076 2 gusting 8 16.7
2018-Feb-21 12:27 064 3 gusting 6 16.7
2018-Feb-21 12:22 074 2 gusting 6 16.7
2018-Feb-21 12:17 106 3 gusting 8 16.1
2018-Feb-21 12:12 082 3 gusting 8 16.1
2018-Feb-21 12:02 064 3 gusting 8 15.6
2018-Feb-21 11:52 069 2 gusting 7 15.6
2018-Feb-21 11:47 073 3 gusting 7 15.6
2018-Feb-21 11:37 086 4 gusting 13 15.6
2018-Feb-21 11:22 094 5 gusting 11 15.0
2018-Feb-21 11:07 088 5 gusting 10 14.4
2018-Feb-21 10:52 049 6 gusting 13 14.4
2018-Feb-21 10:47 106 6 gusting 13 14.4
2018-Feb-21 10:42 087 6 gusting 13 14.4
2018-Feb-21 10:37 058 7 gusting 13 13.9
2018-Feb-21 10:32 080 7 gusting 13 13.9
2018-Feb-21 10:27 052 7 gusting 13 13.9
2018-Feb-21 10:22 061 7 gusting 13 13.9
2018-Feb-21 10:17 059 6 gusting 13 13.3
2018-Feb-21 10:12 082 6 gusting 13 13.9
2018-Feb-21 10:07 063 6 gusting 12 13.3
2018-Feb-21 10:02 062 6 gusting 13 13.3
2018-Feb-21 09:57 085 6 gusting 13 13.3
2018-Feb-21 09:52 098 6 gusting 13 12.8
2018-Feb-21 09:47 078 5 gusting 8 12.8
2018-Feb-21 09:42 069 4 gusting 8 12.8
2018-Feb-21 09:37 065 4 gusting 8 12.8
2018-Feb-21 09:27 084 1 gusting 5 11.7
2018-Feb-21 09:22 065 1 gusting 5 11.7
2018-Feb-21 09:17 067 0 gusting 1 11.7
2018-Feb-21 09:12 049 11.7
2018-Feb-21 09:07 042 11.1
2018-Feb-21 09:02 042 0 gusting 3 11.1
2018-Feb-21 08:57 040 0 gusting 3 10.6
2018-Feb-21 08:52 049 10.6
2018-Feb-21 08:47 049 10.6
2018-Feb-21 08:42 049 0 gusting 2 10.0
2018-Feb-21 08:37 049 0 gusting 2 10.0
2018-Feb-21 08:32 049 0 gusting 2 10.0
2018-Feb-21 08:27 049 0 gusting 2 9.4
2018-Feb-21 08:22 049 0 gusting 3 9.4
2018-Feb-21 08:17 049 0 gusting 3 9.4
2018-Feb-21 08:12 049 0 gusting 3 9.4
2018-Feb-21 08:07 049 0 gusting 2 9.4
2018-Feb-21 08:02 033 0 gusting 2 9.4
2018-Feb-21 07:57 306 8.9
2018-Feb-21 07:52 306 8.9
2018-Feb-21 07:47 306 8.9
2018-Feb-21 07:42 306 8.9
2018-Feb-21 07:37 306 8.9
2018-Feb-21 07:32 306 0 gusting 2 8.9
2018-Feb-21 07:27 306 1 gusting 2 8.9
2018-Feb-21 07:22 306 0 gusting 2 8.9
2018-Feb-21 07:17 306 8.9
2018-Feb-21 07:12 306 8.9
2018-Feb-21 07:07 306 8.9
2018-Feb-21 07:02 306 8.9
2018-Feb-21 06:57 306 8.9
2018-Feb-21 06:52 306 8.9
2018-Feb-21 06:47 306 8.9
2018-Feb-21 06:42 306 8.9
2018-Feb-21 06:37 306 8.9
2018-Feb-21 06:32 306 0 gusting 2 8.9
2018-Feb-21 06:27 306 0 gusting 2 8.9
2018-Feb-21 06:22 306 0 gusting 2 9.4
2018-Feb-21 06:17 306 0 gusting 2 9.4
2018-Feb-21 06:12 306 0 gusting 2 9.4
2018-Feb-21 06:07 306 0 gusting 2 9.4
2018-Feb-21 06:02 306 0 gusting 2 9.4
2018-Feb-21 05:57 306 9.4
2018-Feb-21 05:52 306 9.4
2018-Feb-21 05:47 306 9.4
2018-Feb-21 05:42 306 9.4
2018-Feb-21 05:37 306 9.4
2018-Feb-21 05:32 306 9.4
2018-Feb-21 05:27 306 9.4
2018-Feb-21 05:22 306 9.4
2018-Feb-21 05:17 306 9.4
2018-Feb-21 05:12 306 9.4
2018-Feb-21 05:07 306 9.4
2018-Feb-21 05:02 306 9.4
2018-Feb-21 04:57 306 9.4
2018-Feb-21 04:52 306 10.0
2018-Feb-21 04:47 306 10.0
2018-Feb-21 04:42 306 10.0
2018-Feb-21 04:37 306 10.6
2018-Feb-21 04:32 306 10.6
2018-Feb-21 04:27 306 10.6
2018-Feb-21 04:22 306 10.6
2018-Feb-21 04:17 306 10.6
2018-Feb-21 04:12 306 10.6
2018-Feb-21 04:07 306 10.6
2018-Feb-21 04:02 306 0 gusting 2 10.6
2018-Feb-21 03:57 306 0 gusting 2 10.6
2018-Feb-21 03:52 306 10.6
2018-Feb-21 03:47 306 10.6
2018-Feb-21 03:42 306 0 gusting 3 10.6
2018-Feb-21 03:37 306 0 gusting 3 10.6
2018-Feb-21 03:32 302 1 gusting 4 11.1
2018-Feb-21 03:27 297 1 gusting 4 11.1
2018-Feb-21 03:22 296 2 gusting 4 11.1
2018-Feb-21 03:17 296 2 gusting 4 11.1
2018-Feb-21 03:12 299 3 gusting 4 11.1
2018-Feb-21 03:07 294 3 gusting 4 11.1
2018-Feb-21 03:02 292 2 gusting 4 11.1